Flag for U.S.A. Weather past 2 weeks in Montgomery, Alabama, U.S.A.

Now
84 °F

Sunny.


Feels Like: 84 °F
Forecast: 65 / 89 °F
Wind: 5 mph from Northeast

Location: Maxwell Air Force Base / Montgomery

Current Time: Jul 30, 2014 at 7:11:37 PM

Latest Report: Jul 30, 2014 at 5:58 PM


Visibility: 10 mi

Pressure: 30.00 "Hg

Humidity: 39%

Dew point: 57 °F

Location of MontgomeryLocation

Historic Weather in Montgomery — Graph

°F

Montgomery temperature yesterday

Maximum temperature yesterday: 87 °F (at 2:58 PM)
Minimum temperature yesterday: 66 °F (at 5:58 AM)
Average temperature yesterday: 77 °F

Past Weeks' High & Low Weather Summary

 TemperatureHumidityPressure
High95 °F (Jul 27, 4:58 PM)100% (Jul 15, 7:58 PM)30.10 "Hg (Jul 15, 7:58 PM)
Low60 °F (Jul 30, 5:58 AM)34% (Jul 30, 3:58 PM)29.86 "Hg (Jul 15, 6:58 PM)
Average79 °F79%30.01 "Hg
* Reported Jul 15 5:58 PM — Jul 30 5:58 PM, Montgomery, Weather by CustomWeather, © 2014

Note: Actual official high and low records may vary slightly from our data, if they occured in-between our weather recording intervals... More about our weather records

Advertising

Montgomery weather history for previous 24 hours

 ConditionsComfort  
Time TempWeatherWind HumidityBarometerVisibility
5:58 PM
Jul 30
84 °FSunny.5 mph39%30.00 "Hg10 mi
4:58 PM85 °FSunny.7 mph39%30.01 "Hg10 mi
3:58 PM85 °FSunny.9 mph34%30.01 "Hg10 mi
2:58 PM85 °FSunny.9 mph37%30.02 "Hg10 mi
1:58 PM84 °FSunny.8 mph39%30.03 "Hg10 mi
12:58 PM82 °FSunny.7 mph38%30.04 "Hg10 mi
11:58 AM80 °FSunny.7 mph43%30.05 "Hg10 mi
10:58 AM78 °FSunny.6 mph44%30.07 "Hg10 mi
9:58 AM76 °FSunny.8 mph49%30.07 "Hg10 mi
8:58 AM72 °FSunny.7 mph60%30.07 "Hg10 mi
7:58 AM66 °FSunny.1 mph79%30.07 "Hg10 mi
6:58 AM62 °FSunny.3 mph85%30.06 "Hg10 mi
5:58 AM60 °FClear.2 mph93%30.06 "Hg10 mi
4:58 AM62 °FClear.2 mph82%30.05 "Hg10 mi
3:58 AM63 °FClear.No wind78%30.04 "Hg10 mi
2:58 AM63 °FClear.No wind77%30.04 "Hg10 mi
1:58 AM66 °FClear.3 mph71%30.04 "Hg10 mi
12:58 AM67 °FClear.6 mph67%30.04 "Hg10 mi
11:58 PM
Jul 29
69 °FClear.5 mph63%30.04 "Hg10 mi
10:58 PM71 °FClear.5 mph59%30.04 "Hg10 mi
9:58 PM72 °FClear.5 mph61%30.02 "Hg10 mi
8:58 PM74 °FClear.5 mph60%30.01 "Hg10 mi
7:58 PM77 °FSunny.6 mph56%29.99 "Hg10 mi
Weather by CustomWeather, © 2014

See weather overviewHow to use our weather pages